TimeEST,TemperatureF,Dew PointF,Humidity,Sea Level PressureIn,VisibilityMPH,Wind Direction,Wind SpeedMPH,Gust SpeedMPH,PrecipitationIn,Events,Conditions,WindDirDegrees,DateUTC
12:14 AM,24.8,19.2,79,29.90,10.0,WSW,8.1,-,N/A,,Overcast,250,2013-02-24 05:14:00
12:34 AM,24.8,19.0,79,29.90,10.0,WSW,6.9,-,N/A,,Overcast,250,2013-02-24 05:34:00
12:55 AM,25.0,19.2,79,29.90,10.0,WSW,8.1,-,N/A,,Overcast,240,2013-02-24 05:55:00
1:14 AM,24.8,19.0,79,29.91,10.0,SW,8.1,-,N/A,,Overcast,230,2013-02-24 06:14:00
1:35 AM,24.8,19.0,79,29.91,10.0,SW,8.1,-,N/A,,Overcast,230,2013-02-24 06:35:00
1:54 AM,24.8,18.9,78,29.92,10.0,WSW,6.9,-,N/A,,Overcast,240,2013-02-24 06:54:00
2:14 AM,24.8,18.9,78,29.92,10.0,WSW,6.9,-,N/A,,Overcast,240,2013-02-24 07:14:00
2:35 AM,24.8,18.9,78,29.93,10.0,WSW,6.9,-,N/A,,Overcast,240,2013-02-24 07:35:00
2:54 AM,24.8,18.9,78,29.93,10.0,WSW,5.8,-,N/A,,Overcast,240,2013-02-24 07:54:00
3:14 AM,24.8,18.9,78,29.93,10.0,SW,6.9,-,N/A,,Overcast,230,2013-02-24 08:14:00
3:35 AM,24.8,19.0,79,29.92,10.0,WSW,5.8,-,N/A,,Overcast,240,2013-02-24 08:35:00
3:54 AM,24.6,19.0,79,29.92,7.0,WSW,5.8,-,N/A,,Overcast,240,2013-02-24 08:54:00
4:14 AM,24.6,19.4,81,29.92,7.0,SW,6.9,-,N/A,,Overcast,230,2013-02-24 09:14:00
4:35 AM,24.8,19.4,80,29.92,7.0,WSW,5.8,-,N/A,Snow,Light Snow,240,2013-02-24 09:35:00
4:54 AM,24.6,19.8,82,29.93,7.0,WSW,8.1,-,N/A,Snow,Light Snow,240,2013-02-24 09:54:00
5:14 AM,24.8,20.1,82,29.94,5.0,WSW,6.9,-,N/A,Snow,Light Snow,240,2013-02-24 10:14:00
5:35 AM,24.8,20.3,83,29.94,7.0,WSW,8.1,-,N/A,,Overcast,240,2013-02-24 10:35:00
5:54 AM,24.8,20.3,83,29.95,7.0,WSW,6.9,-,N/A,Snow,Light Snow,250,2013-02-24 10:54:00
6:14 AM,24.8,20.3,83,29.96,4.0,WSW,6.9,-,N/A,Snow,Light Snow,250,2013-02-24 11:14:00
6:34 AM,24.8,20.7,84,29.96,7.0,West,8.1,-,N/A,Snow,Light Snow,260,2013-02-24 11:34:00
6:54 AM,24.8,20.7,84,29.96,7.0,WSW,6.9,-,N/A,Snow,Light Snow,250,2013-02-24 11:54:00
7:15 AM,24.8,20.5,84,29.96,7.0,WSW,5.8,-,N/A,Snow,Light Snow,250,2013-02-24 12:15:00
7:34 AM,25.2,20.7,83,29.97,7.0,WSW,4.6,-,N/A,,Overcast,240,2013-02-24 12:34:00
8:14 AM,25.5,20.7,82,29.99,7.0,SW,5.8,-,N/A,,Overcast,220,2013-02-24 13:14:00
8:34 AM,25.2,20.3,82,29.99,5.0,WSW,8.1,-,N/A,,Haze,240,2013-02-24 13:34:00
8:55 AM,25.3,20.7,82,30.00,7.0,WSW,8.1,-,N/A,,Overcast,240,2013-02-24 13:55:00
9:14 AM,25.5,20.8,82,30.01,5.0,WSW,9.2,-,N/A,,Overcast,240,2013-02-24 14:14:00
9:34 AM,26.1,21.2,82,30.01,5.0,WSW,6.9,-,N/A,,Haze,250,2013-02-24 14:34:00
9:55 AM,27.3,22.1,81,30.01,7.0,West,8.1,-,N/A,,Overcast,260,2013-02-24 14:55:00
10:14 AM,28.2,22.5,79,30.02,7.0,WSW,9.2,-,N/A,,Overcast,250,2013-02-24 15:14:00
10:34 AM,28.9,22.6,77,30.03,7.0,WSW,10.4,-,N/A,,Overcast,250,2013-02-24 15:34:00
10:55 AM,30.6,22.8,73,30.03,7.0,West,10.4,-,N/A,,Overcast,270,2013-02-24 15:55:00
11:14 AM,30.7,22.8,72,30.03,10.0,West,12.7,-,N/A,,Overcast,270,2013-02-24 16:14:00
11:34 AM,30.7,23.4,74,30.04,10.0,West,11.5,-,N/A,,Overcast,260,2013-02-24 16:34:00
11:54 AM,31.6,23.7,73,30.04,10.0,West,15.0,-,N/A,,Overcast,260,2013-02-24 16:54:00
12:14 PM,30.9,23.4,74,30.05,7.0,West,15.0,18.4,N/A,Snow,Light Snow,260,2013-02-24 17:14:00
12:35 PM,31.3,23.4,72,30.05,7.0,WSW,10.4,-,N/A,,Overcast,240,2013-02-24 17:35:00
12:54 PM,30.7,23.5,75,30.06,5.0,West,9.2,-,N/A,Snow,Light Snow,260,2013-02-24 17:54:00
1:14 PM,32.0,24.1,73,30.05,10.0,West,10.4,-,N/A,,Overcast,270,2013-02-24 18:14:00
1:35 PM,32.9,24.8,72,30.05,10.0,West,11.5,-,N/A,,Overcast,260,2013-02-24 18:35:00
1:54 PM,32.9,24.8,72,30.05,10.0,West,10.4,-,N/A,,Overcast,260,2013-02-24 18:54:00
2:14 PM,32.9,25.0,73,30.05,10.0,West,6.9,-,N/A,,Overcast,270,2013-02-24 19:14:00
2:34 PM,32.9,24.4,71,30.05,10.0,West,8.1,-,N/A,,Overcast,280,2013-02-24 19:34:00
2:54 PM,32.9,24.4,71,30.06,10.0,West,6.9,-,N/A,,Overcast,280,2013-02-24 19:54:00
3:15 PM,32.9,24.8,72,30.06,10.0,West,6.9,-,N/A,,Overcast,280,2013-02-24 20:15:00
3:34 PM,32.9,24.6,72,30.07,7.0,West,6.9,-,N/A,,Overcast,280,2013-02-24 20:34:00
3:54 PM,33.3,24.4,70,30.07,10.0,West,6.9,-,N/A,,Overcast,280,2013-02-24 20:54:00
4:15 PM,33.4,24.8,71,30.07,10.0,West,8.1,-,N/A,,Overcast,270,2013-02-24 21:15:00
4:34 PM,33.1,24.8,72,30.07,10.0,West,8.1,-,N/A,,Overcast,270,2013-02-24 21:34:00
4:54 PM,33.1,24.1,70,30.08,10.0,WNW,9.2,-,N/A,,Overcast,290,2013-02-24 21:54:00
5:14 PM,32.9,24.1,70,30.08,10.0,West,6.9,-,N/A,,Overcast,280,2013-02-24 22:14:00
5:34 PM,32.9,24.4,71,30.08,10.0,WNW,5.8,-,N/A,,Overcast,290,2013-02-24 22:34:00
5:55 PM,32.4,24.6,73,30.09,10.0,West,5.8,-,N/A,,Overcast,270,2013-02-24 22:55:00
6:14 PM,32.0,24.6,74,30.09,10.0,WNW,3.5,-,N/A,,Overcast,290,2013-02-24 23:14:00
6:34 PM,31.5,23.7,73,30.09,10.0,Calm,Calm,-,N/A,,Overcast,0,2013-02-24 23:34:00
6:54 PM,29.3,22.6,76,30.10,10.0,Calm,Calm,-,N/A,,Scattered Clouds,0,2013-02-24 23:54:00
7:14 PM,29.3,22.8,77,30.11,10.0,WNW,3.5,-,N/A,,Mostly Cloudy,300,2013-02-25 00:14:00
7:34 PM,28.6,23.4,81,30.12,10.0,West,3.5,-,N/A,,Overcast,270,2013-02-25 00:34:00
7:54 PM,29.8,23.4,77,30.12,10.0,Calm,Calm,-,N/A,,Overcast,0,2013-02-25 00:54:00
8:14 PM,29.1,22.8,77,30.12,10.0,Calm,Calm,-,N/A,,Overcast,0,2013-02-25 01:14:00
8:35 PM,27.7,22.8,82,30.13,10.0,Calm,Calm,-,N/A,,Scattered Clouds,0,2013-02-25 01:35:00
8:54 PM,25.0,20.3,82,30.13,10.0,Calm,Calm,-,N/A,,Clear,0,2013-02-25 01:54:00
9:14 PM,24.8,20.5,84,30.13,10.0,SW,3.5,-,N/A,,Clear,230,2013-02-25 02:14:00
9:35 PM,22.1,18.1,85,30.13,10.0,Calm,Calm,-,N/A,,Clear,0,2013-02-25 02:35:00
9:54 PM,22.8,20.1,89,30.13,10.0,Calm,Calm,-,N/A,,Clear,0,2013-02-25 02:54:00
10:14 PM,21.0,19.2,93,30.13,10.0,Calm,Calm,-,N/A,,Clear,0,2013-02-25 03:14:00
10:35 PM,20.8,19.4,94,30.13,7.0,Calm,Calm,-,N/A,,Clear,0,2013-02-25 03:35:00
10:54 PM,20.8,19.2,93,30.13,7.0,Calm,Calm,-,N/A,,Clear,0,2013-02-25 03:54:00
11:14 PM,20.1,18.3,93,30.13,7.0,Calm,Calm,-,N/A,,Clear,0,2013-02-25 04:14:00
11:35 PM,18.1,16.2,92,30.13,7.0,Calm,Calm,-,N/A,,Clear,0,2013-02-25 04:35:00
11:54 PM,18.1,16.3,93,30.14,7.0,Calm,Calm,-,N/A,,Clear,0,2013-02-25 04:54:00